138  
ASUS41 KPHI 241912  
RWRPHI  
 
REGIONAL WEATHER ROUNDUP  
NATIONAL WEATHER SERVICE MOUNT HOLLY NJ  
300 PM EDT SUN MAR 24 2019  
 
NOTE: "FAIR" INDICATES FEW OR NO CLOUDS BELOW 12,000 FEET WITH NO  
SIGNIFICANT WEATHER AND/OR S TO VISIBILITY
.  
 
* = STATION DOES NOT REPORT PRECIPITATION (E.G. RAIN, SNOW, ETC.)  
OR FOG.
 
 
NJZ015>026-242000-  
SOUTHERN NEW JERSEY  
 
CITY SKY/WX TMP DP RH WIND PRES REMARKS
 
POMONA FAIR 62 17 17 W14G26 30.14F  
WILDWOOD* FAIR 59 21 23 SW10 30.18F  
MILLVILLE FAIR 58 17 20 SW9 30.16F  
WRIGHTSTOWN FAIR 61 21 21 SW15 30.09F  
MOUNT HOLLY FAIR 59 18 20 SW14G21 30.13F  
TRENTON FAIR 59 21 23 W13 30.10F  
 

 
NJZ001>014-242000-  
NORTHERN NEW JERSEY  
 
CITY SKY/WX TMP DP RH WIND PRES REMARKS
 
SUSSEX FAIR 60 13 15 SW10G22 30.04F  
ANDOVER* N/A 59 11 15 SW9G18 30.05F  
MORRISTOWN CLOUDY 59 21 23 W14G23 30.07F  
NEWARK PTSUNNY 59 15 18 SW13G24 30.08F  
TETERBORO FAIR 59 19 21 SW13G23 30.06F  
CALDWELL FAIR 59 15 18 SW7 30.07F  
SOMERVILLE FAIR 60 17 18 VRB5G18 30.07F  
ALLAIRE* FAIR 59 20 22 SW14 30.12F  
TOMS RIVER* FAIR 61 20 20 W17G25 30.12F  
 

 
PAZ043-044-047-054-055-060>062-066>071-242000-  
EASTERN PENNSYLVANIA  
 
CITY SKY/WX TMP DP RH WIND PRES REMARKS
 
PHILADELPHIA PTSUNNY 60 18 19 SW13 30.13F  
NORTH PHILA FAIR 62 18 18 W12G24 30.13F  
BLUE BELL* FAIR 57 23 26 SW12 30.11F  
DOYLESTOWN FAIR 58 20 22 W10G17 30.09F  
QUAKERTOWN* SUNNY 59 25 27 SW9G15 30.09  
PERKASIE* FAIR 57 19 23 W13G18 30.10F  
POTTSTOWN FAIR 57 21 24 W7G18 30.12F  
LANCASTER FAIR 60 23 24 W12 30.11F  
COATESVILLE FAIR 59 19 21 VRB7G13 30.12F  
READING FAIR 60 24 25 MISG 30.15  
ALLENTOWN FAIR 60 23 24 SW16G23 30.08F  
MOUNT POCONO FAIR 47 15 27 W13 30.04F  
HAZLETON FAIR 52 10 19 W6 30.07F  
LEHIGHTON FAIR 59 12 15 SW7 30.07F  
WILKES BARRE FAIR 52 18 26 SW12 30.05F  
 

 
DEZALL-MDZ008-012-015-019-020-242000-  
DELAWARE AND EASTERN MARYLAND  
 
CITY SKY/WX TMP DP RH WIND PRES REMARKS
 
WILMINGTON FAIR 60 21 22 W13G18 30.15F  
DOVER FAIR 62 17 17 SW15 30.16F  
GEORGETOWN FAIR 63 20 19 SW9G22 30.18F  
EASTON MOSUNNY 63 18 17 SW10 30.22F  
PATUXENT PTSUNNY 57 36 45 SE15 30.18F  
OCEAN CITY FAIR 54 35 48 S10G23 30.20F  
WALLOPS ISLAND FAIR 58 26 29 S22G29 30.22F  
CAMBRIDGE SUNNY 59 21 23 S9 30.19F  
SALISBURY FAIR 61 24 24 W10 30.19F  
 

 
PAZ001-021-NYZ056-072-MDZ011-DCZ001-242000-  
OTHER NEARBY LOCATIONS  
 
CITY SKY/WX TMP DP RH WIND PRES REMARKS
 
HARRISBURG PTSUNNY 61 20 20 NW9 30.10F  
STATE COLLEGE PTSUNNY 50 19 29 W15 30.11F  
WILLIAMSPORT FAIR 52 18 26 W9 30.08F  
BINGHAMTON FAIR 44 19 36 W15G22 30.01F  
NEW YORK CITY FAIR 58 12 16 VRB5 30.10F  
BALTIMORE PTSUNNY 63 16 16 SW8G17 30.13F  
WASHINGTON DC PTSUNNY 61 24 24 S13 30.15F  
 

 
 
 
CLICK HERE TO GO TO PREVIOUS BULLETINS.

The Nexlab PA Page
The Nexlab NJ Page
The Nexlab DE Page
The Nexlab MD Page Main Text Page